[[{"header":{"parameterUnit":"m.s-1","parameterCategory":1,"la1":30.2991,"la2":30.254,"lo1":-89.0895,"lo2":-89.0444,"dy":0.0017,"dx":0.0017,"nx":28,"ny":28,"refTime":"2023-09-20T03:00:00:Z","depth":0,"parameterNumber":2,"parameterNumberName":"U-component_of_WINDS"},"data":[0,0,0,0,0,0,0,0,0,0,0,0,0,0,0,0,0,0,0,0,0,0,0,0,0,0,0,0,0,0,0,0,0,0,0,0,0,0,0,0,0,0,0,0,0,0,0,0,0,0,0,0,0,0,0,0,0,0,-4.9548,-4.9549,0,-4.9593,-4.9594,-4.9594,-4.9545,-4.9544,-4.9542,-4.954,-4.9583,-4.9586,-4.9589,0,0,0,0,0,0,0,0,0,0,0,0,0,-4.9418,-4.9421,-4.9548,-4.9549,-4.955,-4.9593,-4.9594,-4.9594,-4.9546,-4.9543,-4.9541,-4.9539,-4.9582,-4.9585,-4.9589,0,0,0,0,0,0,0,0,0,0,0,0,0,-4.947,-4.9422,-4.9548,-4.9531,-4.9529,-4.9593,-4.9594,-4.9595,-4.9546,-4.9543,-4.9541,-4.9538,-4.9581,-4.9585,-4.9589,-4.9672,0,0,-4.9603,-4.9604,0,0,0,0,0,0,0,0,-4.9467,-4.9475,-4.9533,-4.9532,-4.9531,-4.9561,-4.9564,-4.962,-4.9547,-4.954,-4.954,-4.9537,-4.9578,-4.9582,-4.9597,-4.9674,-4.9676,-4.9603,-4.9606,-4.9607,-4.9609,0,0,0,0,0,0,0,-4.9464,-4.9473,-4.9566,-4.9533,-4.9532,-4.952,-4.9524,-4.9574,-4.9574,-4.954,-4.9537,-4.9543,-4.9577,-4.9592,-4.9597,-4.9676,-4.9603,-4.9607,-4.9609,-4.9611,-4.9824,-4.9827,0,0,0,0,0,0,-4.9462,-4.947,-4.9565,-4.9567,-4.9491,-4.9524,-4.9529,-4.9554,-4.9573,-4.9573,-4.9545,-4.954,-4.9586,-4.9592,-4.9598,-4.9696,-4.9607,-4.9611,-4.9614,-4.9821,-4.9825,-4.9828,0,0,0,0,0,0,-4.946,-4.9471,-4.9563,-4.9518,-4.9528,-4.9529,-4.9558,-4.9556,-4.9572,-4.9577,-4.9576,-4.9562,-4.9585,-4.9592,-4.9654,-4.9697,-4.9613,-4.9617,-4.9818,-4.9822,-4.9827,-4.9893,0,0,0,0,0,0,-4.9456,-4.9471,-4.9502,-4.9519,-4.9531,-4.9619,-4.9561,-4.9559,-4.958,-4.9574,-4.9592,-4.9592,-4.9583,-4.9648,-4.9659,-4.9702,-4.9621,-4.9814,-4.982,-4.9825,-4.9887,-4.9899,-4.991,0,0,0,0,0,-4.9452,-4.9518,-4.9504,-4.9516,-4.9571,-4.9621,-4.9628,-4.9616,-4.9584,-4.9615,-4.9619,-4.9592,-4.9691,-4.9655,-4.9666,-4.9711,-4.9811,-4.9818,-4.9825,-4.9882,-4.9897,-4.991,0,0,0,0,0,0,-4.9505,-4.952,-4.9504,-4.9579,-4.9599,-4.9613,-4.9652,-4.9633,-4.9662,-4.9655,-4.9639,-4.9643,-4.9709,-4.9716,-4.9676,-4.9792,-4.9746,-4.9755,-4.9785,-4.9799,-4.9811,-4.9807,-4.9624,0,0,0,0,0,-4.9526,-4.9566,-4.9577,-4.9641,-4.9653,-4.9651,-4.9672,-4.9662,-4.9682,-4.969,-4.9698,-4.9718,-4.9753,-4.9777,-4.981,-4.9888,-4.9891,-4.9925,-4.9936,-4.9946,-4.9954,-4.9996,-5.0011,-4.9851,-4.9851,-4.9851,0,0,-4.9568,-4.9582,-4.9608,-4.9652,-4.9667,-4.9709,-4.9658,-4.9704,-4.9735,-4.9697,-4.9756,-4.9763,-4.9783,-4.9854,-4.9886,-4.9862,-4.9999,-4.9955,-4.9962,-4.9965,-5.0005,-5.002,-5.0033,-4.9856,-4.9855,-4.9854,0,0,-4.9667,-4.9682,-4.9737,-4.9753,-4.9777,-4.9775,-4.9789,-4.9806,-4.9809,-4.9869,-4.9842,-4.9877,-4.9939,-4.9956,-4.9972,-5.0079,-5.0056,-5.009,-5.015,-5.0191,-5.0204,-5.0215,-5.0253,-5.0267,-5.0099,-5.0099,-5.0099,0,-4.9716,-4.9779,-4.9767,-4.9816,-4.9836,-4.9806,-4.9862,-4.9878,-4.991,-4.9925,-4.9899,-4.9976,-4.9988,-5.0063,-5.0089,-5.0104,-5.0118,-5.0087,-5.0203,-5.0214,-5.0224,-5.026,-5.0275,-5.0103,-5.0102,-5.0102,-5.0102,0,-4.9838,-4.9882,-4.9924,-4.9958,-4.9983,-5.0035,-5.0031,-5.0058,-5.0046,-5.0048,-5.0109,-5.0123,-5.0159,-5.0176,-5.0164,-5.0249,-5.0233,-5.0206,-5.0158,-5.0244,-5.0277,-5.0291,-5.0109,-5.0107,-5.0106,-5.0105,0,0,-4.997,-4.9999,-5.0014,-5.0029,-5.0054,-5.0087,-5.0138,-5.0174,-5.0198,-5.0222,-5.0263,-5.0318,-5.0293,-5.0311,-5.0301,-5.0338,-5.0422,-5.0306,-5.0306,-5.0326,-5.0516,-5.0536,-5.0552,-5.0407,-5.041,-5.0412,-5.0514,0,-5.0068,-5.0157,-5.015,-5.0234,-5.0274,-5.0247,-5.0291,-5.031,-5.0314,-5.0348,-5.0351,-5.039,-5.0354,-5.0365,-5.04,-5.0404,-5.046,-5.0397,-5.0445,-5.0447,-5.044,-5.057,-5.0591,-5.0687,-5.0527,-5.0529,-5.0531,0,-5.0195,-5.0225,-5.0314,-5.0334,-5.035,-5.039,-5.0423,-5.0457,-5.0479,-5.0478,-5.0501,-5.0485,-5.0536,-5.0488,-5.0558,-5.0515,-5.0535,-5.054,-5.0544,-5.0547,-5.0493,-5.0576,-5.0717,-5.0731,-5.0552,-5.055,-5.0549,0,-5.0281,-5.0344,-5.0406,-5.042,-5.0444,-5.0473,-5.0485,-5.0504,-5.0527,-5.0556,-5.057,-5.0604,-5.0623,-5.0649,-5.0643,-5.0609,-5.0714,-5.0666,-5.0715,-5.0715,-5.0737,-5.0735,-5.0882,-5.0751,-5.0751,-5.0751,-5.0751,0,-5.0392,-5.0447,-5.0445,-5.0482,-5.0543,-5.0534,-5.0594,-5.0602,-5.062,-5.0658,-5.0637,-5.0673,-5.0663,-5.0699,-5.0695,-5.0753,-5.0762,-5.0762,-5.076,-5.0764,-5.0764,-5.0775,-5.0768,-5.0755,-5.0754,-5.0753,-5.0753,0,-5.0498,-5.0499,-5.0564,-5.0583,-5.0589,-5.0633,-5.0648,-5.0684,-5.0686,-5.0735,-5.0746,-5.0749,-5.079,-5.0788,-5.0834,-5.0831,-5.0903,-5.0893,-5.0895,-5.0893,-5.0941,-5.0937,-5.11,-5.1121,-5.0978,-5.0979,-5.098,0,-5.0567,-5.0609,-5.0634,-5.0658,-5.0672,-5.0712,-5.0736,-5.0729,-5.0754,-5.0783,-5.0815,-5.0855,-5.0886,-5.0953,-5.0959,-5.0994,-5.0985,-5.104,-5.099,-5.0992,-5.0985,-5.0982,-5.0986,-5.1049,-5.1051,-5.1052,-5.1053,0,-5.0691,-5.069,-5.0725,-5.0762,-5.0791,-5.0819,-5.0844,-5.0866,-5.0861,-5.0891,-5.0933,-5.0958,-5.1006,-5.1045,-5.1079,-5.109,-5.1071,-5.1069,-5.1082,-5.1086,-5.1085,-5.1085,-5.0921,-5.1065,-5.1064,-5.1063,-5.1062,-5.1062,-5.078,-5.0817,-5.084,-5.088,-5.0899,-5.0924,-5.0958,-5.0966,-5.1002,-5.1041,-5.1035,-5.1083,-5.1104,-5.1149,-5.1163,-5.12,-5.118,-5.1199,-5.1204,-5.1208,-5.1213,-5.1081,-5.1206,-5.1206,-5.1206,-5.1205,-5.1205,0,-5.0902,-5.0917,-5.0954,-5.0991,-5.1023,-5.1005,-5.1032,-5.106,-5.1102,-5.1125,-5.1157,-5.1206,-5.1245,-5.1255,-5.1292,-5.132,-5.1312,-5.133,-5.1327,-5.133,-5.1229,-5.1214,-5.1335,-5.1335,-5.1335,-5.1335,-5.1335,-5.1335,-5.0969,-5.103,-5.1032,-5.1102,-5.1115,-5.1163,-5.118,-5.1203,-5.1221,-5.1278,-5.131,-5.1317,-5.1335,-5.1374,-5.1408,-5.141,-5.1424,-5.1446,-5.1444,-5.135,-5.1337,-5.1324,-5.131,-5.1449,-5.1449,-5.1541,-5.1542,-5.1543]},{"header":{"parameterUnit":"m.s-1","parameterCategory":1,"la1":30.2991,"la2":30.254,"lo1":-89.0895,"lo2":-89.0444,"dy":0.0017,"dx":0.0017,"nx":28,"ny":28,"refTime":"2023-09-20T03:00:00:Z","depth":0,"parameterNumber":3,"parameterNumberName":"V-component_of_WINDS"},"data":[0,0,0,0,0,0,0,0,0,0,0,0,0,0,0,0,0,0,0,0,0,0,0,0,0,0,0,0,0,0,0,0,0,0,0,0,0,0,0,0,0,0,0,0,0,0,0,0,0,0,0,0,0,0,0,0,0,0,-0.1713,-0.1713,0,-0.1766,-0.1767,-0.1767,-0.1772,-0.1772,-0.1771,-0.1771,-0.1826,-0.1828,-0.183,0,0,0,0,0,0,0,0,0,0,0,0,0,-0.1616,-0.1617,-0.1713,-0.1714,-0.1714,-0.1766,-0.1767,-0.1768,-0.1772,-0.1772,-0.1771,-0.177,-0.1826,-0.1828,-0.1831,0,0,0,0,0,0,0,0,0,0,0,0,0,-0.1662,-0.1618,-0.1713,-0.1723,-0.1724,-0.1766,-0.1767,-0.1768,-0.1773,-0.1772,-0.1771,-0.177,-0.1825,-0.1828,-0.1831,-0.1866,0,0,-0.184,-0.1841,0,0,0,0,0,0,0,0,-0.166,-0.1666,-0.1721,-0.1722,-0.1724,-0.1762,-0.1753,-0.1801,-0.1773,-0.1754,-0.1771,-0.177,-0.1806,-0.181,-0.1822,-0.1869,-0.1871,-0.184,-0.1842,-0.1843,-0.1844,0,0,0,0,0,0,0,-0.1656,-0.1664,-0.1734,-0.1721,-0.1723,-0.1725,-0.173,-0.1762,-0.1784,-0.1756,-0.1756,-0.1763,-0.1806,-0.1819,-0.1823,-0.1872,-0.184,-0.1843,-0.1845,-0.1846,-0.195,-0.1951,0,0,0,0,0,0,-0.1651,-0.1661,-0.1732,-0.1736,-0.1689,-0.1727,-0.1734,-0.175,-0.1784,-0.1788,-0.1763,-0.1763,-0.1814,-0.182,-0.1825,-0.1869,-0.1843,-0.1846,-0.1848,-0.1949,-0.195,-0.1951,0,0,0,0,0,0,-0.1649,-0.1657,-0.173,-0.1698,-0.1708,-0.173,-0.1749,-0.1752,-0.1765,-0.1789,-0.1793,-0.1772,-0.1814,-0.1821,-0.1856,-0.1871,-0.1848,-0.185,-0.1948,-0.1949,-0.1951,-0.1956,0,0,0,0,0,0,-0.1646,-0.1657,-0.167,-0.1699,-0.1709,-0.176,-0.175,-0.1754,-0.177,-0.177,-0.1799,-0.1803,-0.1814,-0.1851,-0.1859,-0.1875,-0.1853,-0.1947,-0.1948,-0.195,-0.1955,-0.1957,-0.196,0,0,0,0,0,-0.1643,-0.167,-0.1671,-0.168,-0.1727,-0.1761,-0.1767,-0.1779,-0.1771,-0.1785,-0.1801,-0.1802,-0.1868,-0.1855,-0.1863,-0.188,-0.1946,-0.1948,-0.195,-0.1953,-0.1957,-0.196,0,0,0,0,0,0,-0.1644,-0.1674,-0.1676,-0.1713,-0.1734,-0.1761,-0.178,-0.1782,-0.1806,-0.1805,-0.1819,-0.1825,-0.1859,-0.1873,-0.1858,-0.1916,-0.1906,-0.191,-0.1906,-0.1909,-0.1912,-0.1908,-0.1855,0,0,0,0,0,-0.1649,-0.1673,-0.1698,-0.1729,-0.1739,-0.1757,-0.1773,-0.178,-0.1802,-0.1811,-0.183,-0.1852,-0.1877,-0.1894,-0.1919,-0.1956,-0.1962,-0.1972,-0.1974,-0.1976,-0.198,-0.2,-0.2005,-0.1958,-0.1958,-0.1958,0,0,-0.1659,-0.1678,-0.1693,-0.173,-0.1747,-0.1772,-0.1765,-0.1792,-0.1811,-0.1816,-0.1849,-0.1863,-0.1889,-0.1925,-0.1942,-0.1937,-0.1994,-0.1979,-0.1981,-0.1983,-0.2003,-0.2007,-0.2011,-0.196,-0.1959,-0.1959,0,0,-0.169,-0.1707,-0.1734,-0.1751,-0.1777,-0.1789,-0.1795,-0.1822,-0.1831,-0.1865,-0.1868,-0.1891,-0.1935,-0.1952,-0.1967,-0.2003,-0.2005,-0.2011,-0.2025,-0.2044,-0.2048,-0.2051,-0.2064,-0.2068,-0.2014,-0.2014,-0.2014,0,-0.17,-0.1737,-0.1748,-0.1775,-0.1791,-0.1795,-0.1822,-0.1838,-0.1871,-0.1882,-0.1876,-0.1931,-0.1948,-0.1988,-0.1997,-0.2009,-0.2016,-0.2008,-0.2046,-0.205,-0.2053,-0.2065,-0.207,-0.2014,-0.2014,-0.2014,-0.2014,0,-0.1747,-0.1773,-0.1792,-0.1823,-0.1841,-0.1868,-0.1882,-0.1899,-0.1904,-0.1916,-0.195,-0.1971,-0.2,-0.2009,-0.2015,-0.205,-0.2046,-0.2043,-0.2034,-0.2058,-0.207,-0.2074,-0.2015,-0.2015,-0.2015,-0.2015,0,0,-0.1783,-0.1817,-0.1824,-0.1838,-0.1866,-0.1886,-0.1913,-0.194,-0.1954,-0.1976,-0.1999,-0.2035,-0.2032,-0.2049,-0.2056,-0.2073,-0.21,-0.2068,-0.2069,-0.2073,-0.2139,-0.2141,-0.2147,-0.2101,-0.2102,-0.2102,-0.2137,0,-0.1817,-0.1864,-0.1874,-0.1915,-0.1939,-0.1943,-0.1966,-0.1985,-0.1997,-0.2019,-0.2032,-0.2057,-0.2051,-0.2061,-0.2078,-0.2093,-0.2113,-0.209,-0.2122,-0.2123,-0.2116,-0.2153,-0.2156,-0.2187,-0.2142,-0.2142,-0.2143,0,-0.1864,-0.1886,-0.1929,-0.1953,-0.1963,-0.1984,-0.2009,-0.203,-0.2052,-0.2059,-0.2077,-0.2082,-0.211,-0.2098,-0.2136,-0.212,-0.2134,-0.2143,-0.2144,-0.2148,-0.2135,-0.2158,-0.2198,-0.2203,-0.215,-0.215,-0.2149,0,-0.1885,-0.1926,-0.1957,-0.1968,-0.1996,-0.2011,-0.2023,-0.2044,-0.206,-0.2082,-0.2092,-0.2117,-0.2131,-0.215,-0.2162,-0.2152,-0.2199,-0.2189,-0.2206,-0.2206,-0.2216,-0.2216,-0.2259,-0.2224,-0.2224,-0.2224,-0.2224,0,-0.1923,-0.1949,-0.1966,-0.1986,-0.2015,-0.2025,-0.2054,-0.2067,-0.2085,-0.2106,-0.2111,-0.2131,-0.2145,-0.2167,-0.2176,-0.2206,-0.2212,-0.2219,-0.2221,-0.2219,-0.2218,-0.2228,-0.2226,-0.2225,-0.2225,-0.2225,-0.2224,0,-0.1952,-0.1965,-0.1998,-0.2022,-0.2028,-0.2049,-0.2069,-0.2088,-0.2098,-0.2126,-0.2132,-0.215,-0.2176,-0.2189,-0.2221,-0.2227,-0.2261,-0.2262,-0.2254,-0.2255,-0.2271,-0.227,-0.2323,-0.2331,-0.2291,-0.2291,-0.2291,0,-0.1976,-0.1996,-0.2021,-0.2035,-0.2048,-0.2071,-0.2087,-0.2097,-0.2113,-0.2139,-0.2154,-0.218,-0.2201,-0.2243,-0.2258,-0.2283,-0.2284,-0.2301,-0.2288,-0.2285,-0.2285,-0.2284,-0.2285,-0.2304,-0.2304,-0.2305,-0.2305,0,-0.2016,-0.2021,-0.2043,-0.2067,-0.2085,-0.2104,-0.2123,-0.2135,-0.2149,-0.2166,-0.2192,-0.2209,-0.2241,-0.2267,-0.2292,-0.2305,-0.2307,-0.2309,-0.2314,-0.2312,-0.2307,-0.231,-0.226,-0.2308,-0.2307,-0.2307,-0.2307,-0.2307,-0.2043,-0.2061,-0.2081,-0.2105,-0.212,-0.2138,-0.2156,-0.2169,-0.2191,-0.2218,-0.2222,-0.225,-0.227,-0.2305,-0.2318,-0.234,-0.2336,-0.2344,-0.2346,-0.2348,-0.2348,-0.2302,-0.2344,-0.2344,-0.2344,-0.2344,-0.2344,0,-0.2084,-0.2097,-0.2119,-0.2145,-0.2163,-0.2163,-0.2183,-0.2199,-0.2223,-0.2242,-0.2262,-0.2292,-0.2316,-0.2333,-0.2358,-0.2372,-0.2374,-0.2378,-0.2378,-0.238,-0.235,-0.2343,-0.2376,-0.2376,-0.2376,-0.2376,-0.2376,-0.2376,-0.2107,-0.2137,-0.2144,-0.2181,-0.2194,-0.222,-0.2232,-0.2248,-0.2263,-0.2296,-0.2316,-0.2326,-0.2344,-0.237,-0.2392,-0.2396,-0.2405,-0.241,-0.2414,-0.2386,-0.2383,-0.2379,-0.2373,-0.2412,-0.2412,-0.2442,-0.2443,-0.2443]}]]